OBJECT DF, 66767

Orbit data source: Space-Track

You're viewing an Uncataloged Satellite

Recently launched and/or uncataloged satellites may have evolving metadata. Metadata may include but not limited to: Owner, Maufacturer, Bus, Motor, and Mission.

OBJECT DF, 66767 is a satellite in SSO that was launched on Fri, 28 Nov 2025 UTC via an FALCON 9 launch vehicle from the Air Force Western Test Range (AFWTR). Unknown objects in Earth's orbit typically refer to objects detected orbiting the Earth but have not yet been identified or cataloged. These objects could be anything from previously untracked satellites, spent rocket stages, debris from satellite collisions, or even natural meteoroids temporarily captured by Earth's gravity.

Loading next visibility...
Identifier
66767, 2025-276DF
Orbit
SSO
Country
Flag of TBDTBD
Related business
None
Manufacturer
Unknown
Mission
Operational Commercial Imaging
Bus & Motor
Unknown
Mass
Unknown
Launch date (UTC)
2025-11-28 (2 months ago)
Launch vehicle
FALCON 9
Launch site
Air Force Western Test Range (AFWTR)
Object type
Unknown
Shape & HBR
Box, 0.4 m
Radar Cross Section
0.542 m²

Expand to show TLE details & history
Last TLE update: 4 hours ago

TLE from 4 hours ago
0 OBJECT DF
1 66767U 25276DF  26035.17117870  .00004709  00000-0  22920-3 0  9990
2 66767  97.4299 111.0530 0000909  86.9355 273.1983 15.18857984 10234
Epoch: 2026-02-04T04:06Z
TLE epoch observation values (Epoch: 2026-02-04T04:06:29.839Z)
Latitude
-0.00008°
Longitude
-84.91291°
Altitude
512.344 km
Speed
7.608 km/s
True Right ascension
07h 24m 12s
True Declination
0° 00' 00"
Sunlit
Object was in full shadow at epoch
Visualization orbit readout
Latitude
Unknown
Longitude
Unknown
Altitude
Unknown
Speed
Unknown
Apparent Right ascension
Unknown
Apparent Declination
Unknown
Sunlit
N/A
Visualization observer readout
Local Sidereal Time
10:13:27
Azimuth
Unknown
Elevation
Unknown
Doppler factor
Unknown
Orbital elements
Apogee altitude
506.885 km
Perigee altitude
505.633 km
Semi-major axis
6,884.396 km
Eccentricity
0.00009
Inclination
97.4299°
RAAN
111.053°
Arg. of periapsis
86.9355°
True anomaly
273.1879°
Mean anomaly
273.1983°
Eccentric anomaly
273.1931°
Mean motion
3.79966 °/min
Orbital period
94.75 mins
BSTAR
0.0002292
Loading maneuver chart data...
Computing Atmospheric mass density...
Loading historical data...
Loading historical data...
Loading historical data...
Loading historical data...
Loading historical data...
Loading historical data...
Loading historical data...

Documentation

Showing up to 5 results
|